Location: Tamazert
(32.6352°N, 5.2072°W)
Time: 00:53:17
(UTC+00:00)

Vanguard 1 Rocket - Pass Details

Date: 06 October 2022
Orbit: 650 x 4225 km, 34.3° (Epoch: 05 December)

Event Time Altitude Azimuth Distance (km) Brightness Sun altitude
Rises 19:43:50 0° 253° (WSW) 8,438 13.4 -22.8°
Reaches altitude 10° 19:50:01 10° 254° (WSW) 7,252 12.8 -24.1°
Maximum altitude 20:13:32 90° 169° (S) 2,817 9.6 -29.0°
Enters shadow 20:19:43 44° 78° (ENE) 2,960 9.5 -30.2°
